Location: Lancaster
(34.6980°N, 118.1360°W)
Time: 05:51:28
(UTC-08:00)

Vanguard 1 - Visible Passes

Search period start: 25 February 2018 00:00
Search period end: 07 March 2018 00:00
Orbit: 650 x 3833 km, 34.2° (Epoch: 24 February)

Date Brightness Start Highest point End Pass type
(mag) Time Alt. Az. Time Alt. Az. Time Alt. Az.
25 Feb 11.7 19:46:04 10° WSW 19:49:25 16° SW 19:51:42 12° S visible
27 Feb 11.3 18:04:04 10° W 18:11:46 40° SSW 18:16:40 10° SE visible
28 Feb 11.8 18:25:48 10° W 18:32:21 28° SW 18:36:50 10° SSE visible
01 Mar 12.0 18:47:55 10° W 18:52:48 19° SW 18:56:30 10° S visible
02 Mar 12.5 19:11:24 10° WSW 19:13:09 11° SW 19:14:43 10° SSW visible
06 Mar 12.7 18:11:47 10° W 18:16:14 15° SW 18:19:45 10° SSW visible
